Location: Sternwarte auf dem Internationalen Platz Vogelsang IP
(50.5721°N, 6.4398°E)
Time: 12:08:44
(UTC+01:00)

ACS3 Solar Sail - Pass Details

Date: 20 November 2025
Orbit: 888 x 1003 km, 97.3° (Epoch: 07 December)

Event Time Altitude Azimuth Distance (km) Brightness Sun altitude
Rises 06:27:20 0° 1° (N) 3,570 4.6 -14.0°
Reaches altitude 10° 06:31:46 10° 329° (NNW) 2,652 3.7 -13.3°
Enters shadow 06:32:35 11° 321° (NW) 2,590 3.5 -13.2°
